COSMOS 1478

Satellite information

Favourite Embed

Satellite Type and Status

PAYLOADIN ORBIT

Key statistics

Satellite COSMOS 1478 at a glance.

Uptime

15507

Days in orbit

Revolutions

≈ 12.5

Per day

Orbit

LEO

Low Earth Orbit

Inclination

74.0

Latest

Satellite identification and parameters

Extended collection of information and parameters for COSMOS 1478.

Object identification

Identified? True

Debris? False

Object name: COSMOS 1478

International designator: 1983-069F

Object number (NORAD): 14176

Object ID (CCSDS): 14176

Country: COMMONWEALTH OF INDEPENDENT STATES (CIS)

Current information (Y/N): Y

RCS size: MEDIUM

Orbital parameters

Period: 115.361 minutes

Inclination: 74.0263 deg

SMA: 7849.917 km

Apoapsis: 1480.615 km

Periapsis: 1462.949 km

RAAN: 278.4731 deg

Eccentricy: 0.00112528

Argument of periapsis: 76.8226 deg

Mean anomaly: 357.4936 deg

Mean motion: 12.48260279 rev/day

Mean motion (dot): -0.00000016 rev/day2

B* drag term: -0.000002405664 1/REarth

Two-line elements (TLE)

Creation date: Dec. 19, 2025, 2:08 a.m.

Reference frame: TEME

Reference center: EARTH

Epoch: Dec. 18, 2025, 11:18 p.m. UTC

TLE line 0: 0 COSMOS 1478

TLE line 1: 1 14176U 83069F 25352.97150623 -.00000016 00000-0 -24057-5 0 9997

TLE line 2: 2 14176 74.0263 278.4731 0011253 76.8226 357.4936 12.48260279934653

Live tracking on map

Real-time ground track for satellite COSMOS 1478.

In-orbit conjunctions

A list of the most updated potential collisions computed for object COSMOS 1478.

Target Orbit TCA Probability of collision Miss distance Type
THORAD AGENA D DEB SSO 2025-11-14 13:29:44 0.0003310285 116.0 (m) DEBRIS
SL-14 DEB LEO 2025-02-27 07:19:26 0.0003381821 230.0 (m) DEBRIS

Associated space launch

Military communications satellites

COSMOS 1478 was lifted into orbit during the mission ‘Kosmos-3M | Strela-1M 265-272’, on board a Kosmos-3M space rocket.

The launch took place on July 6, 1983, 12:31 a.m. from 132/2.

For more information about the launch, click the button.

Launch to space Kosmos-3M | Strela-1M 265-272
Kosmos-3M | Strela-1M 265-272

Agency: N/A

Status: Launch Successful

Launch date: July 6, 1983, 12:31 a.m. UTC

Rocket: Kosmos-3M

Launch pad: 132/2

Location: Plesetsk Cosmodrome, Russian Federation

...

Latest news about this satellite

There are no fresh news available about this satellite. Check back as we update our databases every day.


Newsletter sign-up

Weekly statistics, charts and insights to help you stay on top of the space industry.